Weather History for KFPR - March, 2014

Change the Weather History Date:

Sunday, March 16, 2014

  Actual Average Record
Temperature  
Mean Temperature 70 °F -  
Max Temperature 86 °F 79 °F 89 °F (1956)
Min Temperature 55 °F 59 °F 34 °F (1988)
Cooling Degree Days 6    
Growing Degree Days 20 (Base 50)    
Moisture  
Dew Point 58 °F    
Average Humidity 67    
Maximum Humidity 93    
Minimum Humidity 36    
Precipitation  
Precipitation 0.00 in - - ()
Sea Level Pressure  
Sea Level Pressure 29.92 in    
Wind  
Wind Speed 7 mph (SSE)    
Max Wind Speed 22 mph    
Max Gust Speed 29 mph    
Visibility 10 miles    
Events      
Averages and records for this station are not official NWS values.
T = Trace of Precipitation, MM = Missing Value Source: NWS Daily Summary

Daily Weather History Graph

Daily Weather History Graph

Search for Another Location

Airport or City:

Trip Planner

Search our weather history database for the weather conditions in past years. The results will help you decide how hot, cold, wet, or windy it might be!

Date:

Astronomy

Mar. 16, 2014 Rise Set
Actual Time 7:29 AM EDT 7:30 PM EDT
Civil Twilight 7:06 AM EDT 7:54 PM EDT
Nautical Twilight 6:39 AM EDT 8:21 PM EDT
Astronomical Twilight 6:12 AM EDT 8:48 PM EDT
Moon 7:42 PM EDT (3/16) 7:14 AM EDT (3/16)
Length of Visible Light 12h 47m
Length of Day
12h 00m
Full, 100% of the Moon is Illuminated
Mar 16
Full
Mar 16
Full
Mar 23
Last Quarter
Mar 30
New
Apr 7
First Quarter

Hourly Weather History & Observations

Time (EDT) Temp. Heat Index Dew Point Humidity Pressure Visibility Wind Dir Wind Speed Gust Speed Precip Events Conditions
12:53 AM 66.9 °F - 60.1 °F 79% 30.05 in 10.0 mi SE 4.6 mph - N/A   Clear
1:53 AM 61.0 °F - 57.0 °F 87% 30.04 in 10.0 mi Calm Calm - N/A   Clear
2:53 AM 59.0 °F - 55.9 °F 90% 30.02 in 10.0 mi Calm Calm - N/A   Clear
3:53 AM 57.9 °F - 55.0 °F 90% 30.01 in 7.0 mi Calm Calm - N/A   Clear
4:53 AM 57.9 °F - 55.0 °F 90% 30.00 in 8.0 mi Calm Calm - N/A   Partly Cloudy
5:53 AM 57.0 °F - 54.0 °F 89% 30.00 in 8.0 mi Calm Calm - N/A   Partly Cloudy
6:53 AM 55.9 °F - 54.0 °F 93% 29.99 in 6.0 mi Calm Calm - N/A   Clear
7:53 AM 57.0 °F - 54.0 °F 89% 30.01 in 9.0 mi Calm Calm - N/A   Mostly Cloudy
8:53 AM 70.0 °F - 60.1 °F 71% 30.01 in 10.0 mi South 4.6 mph - N/A   Clear
9:53 AM 75.0 °F - 59.0 °F 57% 29.99 in 10.0 mi South 13.8 mph 19.6 mph N/A   Clear
10:53 AM 78.1 °F - 57.0 °F 48% 29.96 in 10.0 mi SSE 16.1 mph 28.8 mph N/A   Partly Cloudy
11:53 AM 81.0 °F 81.0 °F 57.0 °F 44% 29.95 in 10.0 mi South 12.7 mph 23.0 mph N/A   Scattered Clouds
12:53 PM 81.0 °F 80.8 °F 55.9 °F 42% 29.93 in 10.0 mi South 12.7 mph 21.9 mph N/A   Mostly Cloudy
1:53 PM 82.9 °F 82.1 °F 55.9 °F 39% 29.90 in 10.0 mi South 15.0 mph 25.3 mph N/A   Partly Cloudy
2:53 PM 84.0 °F 82.9 °F 55.0 °F 37% 29.86 in 10.0 mi SSW 16.1 mph 26.5 mph N/A   Partly Cloudy
3:53 PM 86.0 °F 84.7 °F 55.9 °F 36% 29.82 in 10.0 mi South 16.1 mph 25.3 mph N/A   Scattered Clouds
4:53 PM 80.1 °F 81.9 °F 64.9 °F 60% 29.82 in 10.0 mi SE 16.1 mph 23.0 mph N/A   Mostly Cloudy
5:53 PM 78.1 °F - 63.0 °F 60% 29.81 in 10.0 mi SE 21.9 mph 27.6 mph N/A   Scattered Clouds
6:53 PM 77.0 °F - 63.0 °F 62% 29.83 in 10.0 mi SE 16.1 mph 26.5 mph N/A   Clear
7:53 PM 75.0 °F - 63.0 °F 66% 29.83 in 10.0 mi SSE 11.5 mph - N/A   Clear
8:53 PM 73.9 °F - 62.1 °F 66% 29.83 in 10.0 mi SSE 10.4 mph - N/A   Clear
9:53 PM 73.9 °F - 61.0 °F 64% 29.84 in 10.0 mi South 11.5 mph - N/A   Clear
10:53 PM 73.0 °F - 62.1 °F 68% 29.85 in 10.0 mi South 9.2 mph - N/A   Clear
11:53 PM 72.0 °F - 62.1 °F 71% 29.83 in 10.0 mi South 10.4 mph - N/A   Clear